Year,Month,Day,Hour,Minute,Value (Times are PST for windgust in km/hr)
2008,02,05,00,00,3.20
2008,02,05,00,01,11.30
2008,02,05,00,02,8.10
2008,02,05,00,03,6.40
2008,02,05,00,04,4.80
2008,02,05,00,05,9.60
2008,02,05,00,06,14.50
2008,02,05,00,07,8.10
2008,02,05,00,08,14.50
2008,02,05,00,09,14.50
2008,02,05,00,10,14.50
2008,02,05,00,11,14.50
2008,02,05,00,12,8.10
2008,02,05,00,13,9.60
2008,02,05,00,14,9.60
2008,02,05,00,15,9.60
2008,02,05,00,16,6.40
2008,02,05,00,17,6.40
2008,02,05,00,18,4.80
2008,02,05,00,19,4.80
2008,02,05,00,20,14.50
2008,02,05,00,21,14.50
2008,02,05,00,22,11.30
2008,02,05,00,23,6.40
2008,02,05,00,24,6.40
2008,02,05,00,25,8.10
2008,02,05,00,26,6.40
2008,02,05,00,27,4.80
2008,02,05,00,28,3.20
2008,02,05,00,29,4.80
2008,02,05,00,30,9.60
2008,02,05,00,31,4.80
2008,02,05,00,32,8.10
2008,02,05,00,33,9.60
2008,02,05,00,34,9.60
2008,02,05,00,35,4.80
2008,02,05,00,36,6.40
2008,02,05,00,37,1.60
2008,02,05,00,38,3.20
2008,02,05,00,39,8.10
2008,02,05,00,40,6.40
2008,02,05,00,41,19.30
2008,02,05,00,42,9.60
2008,02,05,00,43,4.80
2008,02,05,00,44,11.30
2008,02,05,00,45,3.20
2008,02,05,00,46,3.20
2008,02,05,00,47,0.00
2008,02,05,00,48,3.20
2008,02,05,00,49,12.90
2008,02,05,00,50,9.60
2008,02,05,00,51,4.80
2008,02,05,00,52,6.40
2008,02,05,00,53,6.40
2008,02,05,00,54,9.60
2008,02,05,00,55,8.10
2008,02,05,00,56,11.30
2008,02,05,00,57,8.10
2008,02,05,00,58,11.30
2008,02,05,00,59,16.10
2008,02,05,01,00,9.60
2008,02,05,01,01,6.40
2008,02,05,01,02,3.20
2008,02,05,01,03,14.50
2008,02,05,01,04,11.30
2008,02,05,01,05,6.40
2008,02,05,01,06,6.40
2008,02,05,01,07,8.10
2008,02,05,01,08,16.10
2008,02,05,01,09,16.10
2008,02,05,01,10,8.10
2008,02,05,01,11,6.40
2008,02,05,01,12,8.10
2008,02,05,01,13,11.30
2008,02,05,01,14,6.40
2008,02,05,01,15,16.10
2008,02,05,01,16,11.30
2008,02,05,01,17,12.90
2008,02,05,01,18,16.10
2008,02,05,01,19,6.40
2008,02,05,01,20,4.80
2008,02,05,01,21,4.80
2008,02,05,01,22,6.40
2008,02,05,01,23,11.30
2008,02,05,01,24,4.80
2008,02,05,01,25,11.30
2008,02,05,01,26,9.60
2008,02,05,01,27,8.10
2008,02,05,01,28,8.10
2008,02,05,01,29,9.60
2008,02,05,01,30,9.60
2008,02,05,01,31,4.80
2008,02,05,01,32,4.80
2008,02,05,01,33,4.80
2008,02,05,01,34,4.80
2008,02,05,01,35,11.30
2008,02,05,01,36,9.60
2008,02,05,01,37,11.30
2008,02,05,01,38,4.80
2008,02,05,01,39,6.40
2008,02,05,01,40,3.20
2008,02,05,01,41,6.40
2008,02,05,01,42,6.40
2008,02,05,01,43,6.40
2008,02,05,01,44,11.30
2008,02,05,01,45,9.60
2008,02,05,01,46,8.10
2008,02,05,01,47,4.80
2008,02,05,01,48,3.20
2008,02,05,01,49,3.20
2008,02,05,01,50,12.90
2008,02,05,01,51,6.40
2008,02,05,01,52,4.80
2008,02,05,01,53,9.60
2008,02,05,01,54,16.10
2008,02,05,01,55,11.30
2008,02,05,01,56,12.90
2008,02,05,01,57,16.10
2008,02,05,01,58,8.10
2008,02,05,01,59,3.20
2008,02,05,02,00,8.10
2008,02,05,02,01,6.40
2008,02,05,02,02,3.20
2008,02,05,02,03,12.90
2008,02,05,02,04,9.60
2008,02,05,02,05,8.10
2008,02,05,02,06,24.20
2008,02,05,02,07,19.30
2008,02,05,02,08,14.50
2008,02,05,02,09,17.70
2008,02,05,02,10,9.60
2008,02,05,02,11,8.10
2008,02,05,02,12,3.20
2008,02,05,02,13,8.10
2008,02,05,02,14,9.60
2008,02,05,02,15,8.10
2008,02,05,02,16,8.10
2008,02,05,02,17,9.60
2008,02,05,02,18,6.40
2008,02,05,02,19,8.10
2008,02,05,02,20,8.10
2008,02,05,02,21,8.10
2008,02,05,02,22,16.10
2008,02,05,02,23,4.80
2008,02,05,02,24,4.80
2008,02,05,02,25,6.40
2008,02,05,02,26,6.40
2008,02,05,02,27,4.80
2008,02,05,02,28,8.10
2008,02,05,02,29,11.30
2008,02,05,02,30,4.80
2008,02,05,02,31,8.10
2008,02,05,02,32,4.80
2008,02,05,02,33,8.10
2008,02,05,02,34,6.40
2008,02,05,02,35,14.50
2008,02,05,02,36,8.10
2008,02,05,02,37,9.60
2008,02,05,02,38,8.10
2008,02,05,02,39,8.10
2008,02,05,02,40,8.10
2008,02,05,02,41,8.10
2008,02,05,02,42,8.10
2008,02,05,02,43,9.60
2008,02,05,02,44,6.40
2008,02,05,02,45,4.80
2008,02,05,02,46,4.80
2008,02,05,02,47,4.80
2008,02,05,02,48,3.20
2008,02,05,02,49,9.60
2008,02,05,02,50,8.10
2008,02,05,02,51,11.30
2008,02,05,02,52,9.60
2008,02,05,02,53,6.40
2008,02,05,02,54,6.40
2008,02,05,02,55,6.40
2008,02,05,02,56,16.10
2008,02,05,02,57,9.60
2008,02,05,02,58,14.50
2008,02,05,02,59,11.30
2008,02,05,03,00,17.70
2008,02,05,03,01,3.20
2008,02,05,03,02,8.10
2008,02,05,03,03,6.40
2008,02,05,03,04,9.60
2008,02,05,03,05,6.40
2008,02,05,03,06,9.60
2008,02,05,03,07,6.40
2008,02,05,03,08,14.50
2008,02,05,03,09,8.10
2008,02,05,03,10,17.70
2008,02,05,03,11,11.30
2008,02,05,03,12,11.30
2008,02,05,03,13,14.50
2008,02,05,03,14,8.10
2008,02,05,03,15,11.30
2008,02,05,03,16,8.10
2008,02,05,03,17,4.80
2008,02,05,03,18,8.10
2008,02,05,03,19,17.70
2008,02,05,03,20,4.80
2008,02,05,03,21,12.90
2008,02,05,03,22,16.10
2008,02,05,03,23,17.70
2008,02,05,03,24,8.10
2008,02,05,03,25,4.80
2008,02,05,03,26,9.60
2008,02,05,03,27,11.30
2008,02,05,03,28,6.40
2008,02,05,03,29,6.40
2008,02,05,03,30,8.10
2008,02,05,03,31,8.10
2008,02,05,03,32,4.80
2008,02,05,03,33,3.20
2008,02,05,03,34,8.10
2008,02,05,03,35,11.30
2008,02,05,03,36,14.50
2008,02,05,03,37,8.10
2008,02,05,03,38,3.20
2008,02,05,03,39,3.20
2008,02,05,03,40,11.30
2008,02,05,03,41,8.10
2008,02,05,03,42,8.10
2008,02,05,03,43,17.70
2008,02,05,03,44,11.30
2008,02,05,03,45,6.40
2008,02,05,03,46,8.10
2008,02,05,03,47,11.30
2008,02,05,03,48,4.80
2008,02,05,03,49,6.40
2008,02,05,03,50,8.10
2008,02,05,03,51,8.10
2008,02,05,03,52,12.90
2008,02,05,03,53,9.60
2008,02,05,03,54,6.40
2008,02,05,03,55,8.10
2008,02,05,03,56,6.40
2008,02,05,03,57,11.30
2008,02,05,03,58,9.60
2008,02,05,03,59,8.10
2008,02,05,04,00,6.40
2008,02,05,04,01,9.60
2008,02,05,04,02,16.10
2008,02,05,04,03,9.60
2008,02,05,04,04,9.60
2008,02,05,04,05,11.30
2008,02,05,04,06,11.30
2008,02,05,04,07,11.30
2008,02,05,04,08,1.60
2008,02,05,04,09,4.80
2008,02,05,04,10,6.40
2008,02,05,04,11,6.40
2008,02,05,04,12,4.80
2008,02,05,04,13,6.40
2008,02,05,04,14,11.30
2008,02,05,04,15,6.40
2008,02,05,04,16,9.60
2008,02,05,04,17,11.30
2008,02,05,04,18,12.90
2008,02,05,04,19,9.60
2008,02,05,04,20,9.60
2008,02,05,04,21,12.90
2008,02,05,04,22,14.50
2008,02,05,04,23,8.10
2008,02,05,04,24,11.30
2008,02,05,04,25,11.30
2008,02,05,04,26,8.10
2008,02,05,04,27,4.80
2008,02,05,04,28,11.30
2008,02,05,04,29,8.10
2008,02,05,04,30,9.60
2008,02,05,04,31,9.60
2008,02,05,04,32,9.60
2008,02,05,04,33,14.50
2008,02,05,04,34,4.80
2008,02,05,04,35,9.60
2008,02,05,04,36,8.10
2008,02,05,04,37,11.30
2008,02,05,04,38,8.10
2008,02,05,04,39,20.90
2008,02,05,04,40,8.10
2008,02,05,04,41,4.80
2008,02,05,04,42,4.80
2008,02,05,04,43,4.80
2008,02,05,04,44,14.50
2008,02,05,04,45,8.10
2008,02,05,04,46,8.10
2008,02,05,04,47,11.30
2008,02,05,04,48,8.10
2008,02,05,04,49,14.50
2008,02,05,04,50,20.90
2008,02,05,04,51,6.40
2008,02,05,04,52,12.90
2008,02,05,04,53,9.60
2008,02,05,04,54,9.60
2008,02,05,04,55,9.60
2008,02,05,04,56,9.60
2008,02,05,04,57,14.50
2008,02,05,04,58,6.40
2008,02,05,04,59,1.60
2008,02,05,05,00,4.80
2008,02,05,05,01,11.30
2008,02,05,05,02,9.60
2008,02,05,05,03,9.60
2008,02,05,05,04,6.40
2008,02,05,05,05,3.20
2008,02,05,05,06,8.10
2008,02,05,05,07,3.20
2008,02,05,05,08,6.40
2008,02,05,05,09,14.50
2008,02,05,05,10,16.10
2008,02,05,05,11,19.30
2008,02,05,05,12,17.70
2008,02,05,05,13,9.60
2008,02,05,05,14,11.30
2008,02,05,05,15,11.30
2008,02,05,05,16,11.30
2008,02,05,05,17,1.60
2008,02,05,05,18,6.40
2008,02,05,05,19,14.50
2008,02,05,05,20,12.90
2008,02,05,05,21,12.90
2008,02,05,05,22,14.50
2008,02,05,05,23,17.70
2008,02,05,05,24,11.30
2008,02,05,05,25,8.10
2008,02,05,05,26,16.10
2008,02,05,05,27,4.80
2008,02,05,05,28,9.60
2008,02,05,05,29,16.10
2008,02,05,05,30,22.50
2008,02,05,05,31,11.30
2008,02,05,05,32,4.80
2008,02,05,05,33,3.20
2008,02,05,05,34,6.40
2008,02,05,05,35,9.60
2008,02,05,05,36,6.40
2008,02,05,05,37,9.60
2008,02,05,05,38,4.80
2008,02,05,05,39,9.60
2008,02,05,05,40,16.10
2008,02,05,05,41,4.80
2008,02,05,05,42,1.60
2008,02,05,05,43,4.80
2008,02,05,05,44,6.40
2008,02,05,05,45,8.10
2008,02,05,05,46,9.60
2008,02,05,05,47,6.40
2008,02,05,05,48,1.60
2008,02,05,05,49,1.60
2008,02,05,05,50,4.80
2008,02,05,05,51,8.10
2008,02,05,05,52,4.80
2008,02,05,05,53,4.80
2008,02,05,05,54,8.10
2008,02,05,05,55,4.80
2008,02,05,05,56,3.20
2008,02,05,05,57,9.60
2008,02,05,05,58,6.40
2008,02,05,05,59,3.20
2008,02,05,06,00,3.20
2008,02,05,06,01,11.30
2008,02,05,06,02,8.10
2008,02,05,06,03,8.10
2008,02,05,06,04,6.40
2008,02,05,06,05,8.10
2008,02,05,06,06,6.40
2008,02,05,06,07,6.40
2008,02,05,06,08,4.80
2008,02,05,06,09,8.10
2008,02,05,06,10,11.30
2008,02,05,06,11,4.80
2008,02,05,06,12,6.40
2008,02,05,06,13,6.40
2008,02,05,06,14,14.50
2008,02,05,06,15,12.90
2008,02,05,06,16,8.10
2008,02,05,06,17,12.90
2008,02,05,06,18,9.60
2008,02,05,06,19,11.30
2008,02,05,06,20,6.40
2008,02,05,06,21,8.10
2008,02,05,06,22,11.30
2008,02,05,06,23,8.10
2008,02,05,06,24,8.10
2008,02,05,06,25,11.30
2008,02,05,06,26,8.10
2008,02,05,06,27,12.90
2008,02,05,06,28,6.40
2008,02,05,06,29,14.50
2008,02,05,06,30,12.90
2008,02,05,06,31,9.60
2008,02,05,06,32,8.10
2008,02,05,06,33,8.10
2008,02,05,06,34,8.10
2008,02,05,06,35,11.30
2008,02,05,06,36,9.60
2008,02,05,06,37,9.60
2008,02,05,06,38,8.10
2008,02,05,06,39,4.80
2008,02,05,06,40,8.10
2008,02,05,06,41,11.30
2008,02,05,06,42,11.30
2008,02,05,06,43,11.30
2008,02,05,06,44,8.10
2008,02,05,06,45,8.10
2008,02,05,06,46,12.90
2008,02,05,06,47,11.30
2008,02,05,06,48,14.50
2008,02,05,06,49,8.10
2008,02,05,06,50,6.40
2008,02,05,06,51,4.80
2008,02,05,06,52,14.50
2008,02,05,06,53,8.10
2008,02,05,06,54,9.60
2008,02,05,06,55,6.40
2008,02,05,06,56,9.60
2008,02,05,06,57,4.80
2008,02,05,06,58,11.30
2008,02,05,06,59,9.60
2008,02,05,07,00,4.80
2008,02,05,07,01,8.10
2008,02,05,07,02,11.30
2008,02,05,07,03,6.40
2008,02,05,07,04,8.10
2008,02,05,07,05,9.60
2008,02,05,07,06,9.60
2008,02,05,07,07,11.30
2008,02,05,07,08,6.40
2008,02,05,07,09,9.60
2008,02,05,07,10,8.10
2008,02,05,07,11,3.20
2008,02,05,07,12,8.10
2008,02,05,07,13,8.10
2008,02,05,07,14,8.10
2008,02,05,07,15,6.40
2008,02,05,07,16,8.10
2008,02,05,07,17,12.90
2008,02,05,07,18,11.30
2008,02,05,07,19,9.60
2008,02,05,07,20,11.30
2008,02,05,07,21,9.60
2008,02,05,07,22,8.10
2008,02,05,07,23,8.10
2008,02,05,07,24,11.30
2008,02,05,07,25,9.60
2008,02,05,07,26,12.90
2008,02,05,07,27,8.10
2008,02,05,07,28,8.10
2008,02,05,07,29,9.60
2008,02,05,07,30,8.10
2008,02,05,07,31,6.40
2008,02,05,07,32,6.40
2008,02,05,07,33,1.60
2008,02,05,07,34,3.20
2008,02,05,07,35,4.80
2008,02,05,07,36,4.80
2008,02,05,07,37,6.40
2008,02,05,07,38,6.40
2008,02,05,07,39,11.30
2008,02,05,07,40,19.30
2008,02,05,07,41,11.30
2008,02,05,07,42,9.60
2008,02,05,07,43,14.50
2008,02,05,07,44,11.30
2008,02,05,07,45,14.50
2008,02,05,07,46,8.10
2008,02,05,07,47,12.90
2008,02,05,07,48,9.60
2008,02,05,07,49,9.60
2008,02,05,07,50,9.60
2008,02,05,07,51,11.30
2008,02,05,07,52,8.10
2008,02,05,07,53,11.30
2008,02,05,07,54,9.60
2008,02,05,07,55,9.60
2008,02,05,07,56,8.10
2008,02,05,07,57,6.40
2008,02,05,07,58,6.40
2008,02,05,07,59,9.60
2008,02,05,08,00,8.10
2008,02,05,08,01,4.80
2008,02,05,08,02,6.40
2008,02,05,08,03,4.80
2008,02,05,08,04,4.80
2008,02,05,08,05,1.60
2008,02,05,08,06,3.20
2008,02,05,08,07,1.60
2008,02,05,08,08,1.60
2008,02,05,08,09,1.60
2008,02,05,08,10,3.20
2008,02,05,08,11,1.60
2008,02,05,08,12,4.80
2008,02,05,08,13,1.60
2008,02,05,08,14,1.60
2008,02,05,08,15,3.20
2008,02,05,08,16,1.60
2008,02,05,08,17,3.20
2008,02,05,08,18,1.60
2008,02,05,08,19,3.20
2008,02,05,08,20,3.20
2008,02,05,08,21,3.20
2008,02,05,08,22,3.20
2008,02,05,08,23,3.20
2008,02,05,08,24,3.20
2008,02,05,08,25,3.20
2008,02,05,08,26,1.60
2008,02,05,08,27,3.20
2008,02,05,08,28,1.60
2008,02,05,08,29,3.20
2008,02,05,08,30,4.80
2008,02,05,08,31,1.60
2008,02,05,08,32,3.20
2008,02,05,08,33,3.20
2008,02,05,08,34,3.20
2008,02,05,08,35,1.60
2008,02,05,08,36,3.20
2008,02,05,08,37,0.00
2008,02,05,08,38,1.60
2008,02,05,08,39,1.60
2008,02,05,08,40,3.20
2008,02,05,08,41,1.60
2008,02,05,08,42,1.60
2008,02,05,08,43,1.60
2008,02,05,08,44,1.60
2008,02,05,08,45,1.60
2008,02,05,08,46,0.00
2008,02,05,08,47,0.00
2008,02,05,08,48,0.00
2008,02,05,08,49,1.60
2008,02,05,08,50,1.60
2008,02,05,08,51,1.60
2008,02,05,08,52,1.60
2008,02,05,08,53,1.60
2008,02,05,08,54,1.60
2008,02,05,08,55,0.00
2008,02,05,08,56,0.00
2008,02,05,08,57,0.00
2008,02,05,08,58,0.00
2008,02,05,08,59,0.00
2008,02,05,09,00,0.00
2008,02,05,09,01,0.00
2008,02,05,09,02,0.00
2008,02,05,09,03,1.60
2008,02,05,09,04,1.60
2008,02,05,09,05,0.00
2008,02,05,09,06,0.00
2008,02,05,09,07,1.60
2008,02,05,09,08,4.80
2008,02,05,09,09,1.60
2008,02,05,09,10,1.60
2008,02,05,09,11,4.80
2008,02,05,09,12,4.80
2008,02,05,09,13,1.60
2008,02,05,09,14,1.60
2008,02,05,09,15,3.20
2008,02,05,09,16,3.20
2008,02,05,09,17,1.60
2008,02,05,09,18,3.20
2008,02,05,09,19,8.10
2008,02,05,09,20,8.10
2008,02,05,09,21,8.10
2008,02,05,09,22,8.10
2008,02,05,09,23,4.80
2008,02,05,09,24,6.40
2008,02,05,09,25,4.80
2008,02,05,09,26,4.80
2008,02,05,09,27,4.80
2008,02,05,09,28,3.20
2008,02,05,09,29,4.80
2008,02,05,09,30,3.20
2008,02,05,09,31,3.20
2008,02,05,09,32,1.60
2008,02,05,09,33,8.10
2008,02,05,09,34,4.80
2008,02,05,09,35,6.40
2008,02,05,09,36,3.20
2008,02,05,09,37,1.60
2008,02,05,09,38,4.80
2008,02,05,09,39,8.10
2008,02,05,09,40,1.60
2008,02,05,09,41,1.60
2008,02,05,09,42,8.10
2008,02,05,09,43,4.80
2008,02,05,09,44,3.20
2008,02,05,09,45,3.20
2008,02,05,09,46,1.60
2008,02,05,09,47,4.80
2008,02,05,09,48,3.20
2008,02,05,09,49,3.20
2008,02,05,09,50,4.80
2008,02,05,09,51,3.20
2008,02,05,09,52,3.20
2008,02,05,09,53,1.60
2008,02,05,09,54,1.60
2008,02,05,09,55,16.10
2008,02,05,09,56,11.30
2008,02,05,09,57,9.60
2008,02,05,09,58,9.60
2008,02,05,09,59,19.30
2008,02,05,10,00,9.60
2008,02,05,10,01,12.90
2008,02,05,10,02,17.70
2008,02,05,10,03,14.50
2008,02,05,10,04,11.30
2008,02,05,10,05,14.50
2008,02,05,10,06,20.90
2008,02,05,10,07,9.60
2008,02,05,10,08,14.50
2008,02,05,10,09,9.60
2008,02,05,10,10,14.50
2008,02,05,10,11,11.30
2008,02,05,10,12,12.90
2008,02,05,10,13,6.40
2008,02,05,10,14,9.60
2008,02,05,10,15,9.60
2008,02,05,10,16,11.30
2008,02,05,10,17,9.60
2008,02,05,10,18,9.60
2008,02,05,10,19,6.40
2008,02,05,10,20,6.40
2008,02,05,10,21,6.40
2008,02,05,10,22,14.50
2008,02,05,10,23,6.40
2008,02,05,10,24,8.10
2008,02,05,10,25,1.60
2008,02,05,10,26,3.20
2008,02,05,10,27,3.20
2008,02,05,10,28,4.80
2008,02,05,10,29,3.20
2008,02,05,10,30,8.10
2008,02,05,10,31,6.40
2008,02,05,10,32,3.20
2008,02,05,10,33,6.40
2008,02,05,10,34,8.10
2008,02,05,10,35,3.20
2008,02,05,10,36,4.80
2008,02,05,10,37,4.80
2008,02,05,10,38,0.00
2008,02,05,10,39,1.60
2008,02,05,10,40,3.20
2008,02,05,10,41,6.40
2008,02,05,10,42,4.80
2008,02,05,10,43,6.40
2008,02,05,10,44,11.30
2008,02,05,10,45,9.60
2008,02,05,10,46,11.30
2008,02,05,10,47,16.10
2008,02,05,10,48,19.30
2008,02,05,10,49,20.90
2008,02,05,10,50,16.10
2008,02,05,10,51,16.10
2008,02,05,10,52,16.10
2008,02,05,10,53,14.50
2008,02,05,10,54,9.60
2008,02,05,10,55,19.30
2008,02,05,10,56,19.30
2008,02,05,10,57,19.30
2008,02,05,10,58,37.00
2008,02,05,10,59,17.70
2008,02,05,11,00,29.00
2008,02,05,11,01,30.60
2008,02,05,11,02,25.70
2008,02,05,11,03,27.40
2008,02,05,11,04,16.10
2008,02,05,11,05,25.70
2008,02,05,11,06,27.40
2008,02,05,11,07,27.40
2008,02,05,11,08,38.60
2008,02,05,11,09,29.00
2008,02,05,11,10,43.50
2008,02,05,11,11,35.40
2008,02,05,11,12,33.80
2008,02,05,11,13,30.60
2008,02,05,11,14,25.70
2008,02,05,11,15,22.50
2008,02,05,11,16,30.60
2008,02,05,11,17,24.20
2008,02,05,11,18,27.40
2008,02,05,11,19,24.20
2008,02,05,11,20,27.40
2008,02,05,11,21,27.40
2008,02,05,11,22,20.90
2008,02,05,11,23,29.00
2008,02,05,11,24,29.00
2008,02,05,11,25,29.00
2008,02,05,11,26,25.70
2008,02,05,11,27,40.20
2008,02,05,11,28,29.00
2008,02,05,11,29,41.80
2008,02,05,11,30,30.60
2008,02,05,11,31,25.70
2008,02,05,11,32,41.80
2008,02,05,11,33,30.60
2008,02,05,11,34,29.00
2008,02,05,11,35,30.60
2008,02,05,11,36,29.00
2008,02,05,11,37,41.80
2008,02,05,11,38,38.60
2008,02,05,11,39,30.60
2008,02,05,11,40,38.60
2008,02,05,11,41,27.40
2008,02,05,11,42,43.50
2008,02,05,11,43,33.80
2008,02,05,11,44,45.10
2008,02,05,11,45,37.00
2008,02,05,11,46,37.00
2008,02,05,11,47,29.00
2008,02,05,11,48,25.70
2008,02,05,11,49,41.80
2008,02,05,11,50,35.40
2008,02,05,11,51,29.00
2008,02,05,11,52,30.60
2008,02,05,11,53,35.40
2008,02,05,11,54,27.40
2008,02,05,11,55,30.60
2008,02,05,11,56,32.20
2008,02,05,11,57,33.80
2008,02,05,11,58,40.20
2008,02,05,11,59,43.50
2008,02,05,12,00,25.70
2008,02,05,12,01,24.20
2008,02,05,12,02,27.40
2008,02,05,12,03,38.60
2008,02,05,12,04,41.80
2008,02,05,12,05,38.60
2008,02,05,12,06,33.80
2008,02,05,12,07,33.80
2008,02,05,12,08,43.50
2008,02,05,12,09,32.20
2008,02,05,12,10,45.10
2008,02,05,12,11,46.70
2008,02,05,12,12,40.20
2008,02,05,12,13,48.30
2008,02,05,12,14,37.00
2008,02,05,12,15,41.80
2008,02,05,12,16,32.20
2008,02,05,12,17,43.50
2008,02,05,12,18,29.00
2008,02,05,12,19,20.90
2008,02,05,12,20,30.60
2008,02,05,12,21,37.00
2008,02,05,12,22,32.20
2008,02,05,12,23,38.60
2008,02,05,12,24,30.60
2008,02,05,12,25,16.10
2008,02,05,12,26,33.80
2008,02,05,12,27,32.20
2008,02,05,12,28,25.70
2008,02,05,12,29,33.80
2008,02,05,12,30,30.60
2008,02,05,12,31,29.00
2008,02,05,12,32,30.60
2008,02,05,12,33,30.60
2008,02,05,12,34,27.40
2008,02,05,12,35,29.00
2008,02,05,12,36,30.60
2008,02,05,12,37,24.20
2008,02,05,12,38,32.20
2008,02,05,12,39,32.20
2008,02,05,12,40,32.20
2008,02,05,12,41,32.20
2008,02,05,12,42,33.80
2008,02,05,12,43,29.00
2008,02,05,12,44,24.20
2008,02,05,12,45,40.20
2008,02,05,12,46,32.20
2008,02,05,12,47,30.60
2008,02,05,12,48,25.70
2008,02,05,12,49,37.00
2008,02,05,12,50,37.00
2008,02,05,12,51,38.60
2008,02,05,12,52,41.80
2008,02,05,12,53,37.00
2008,02,05,12,54,40.20
2008,02,05,12,55,46.70
2008,02,05,12,56,35.40
2008,02,05,12,57,46.70
2008,02,05,12,58,41.80
2008,02,05,12,59,45.10
2008,02,05,13,00,40.20
2008,02,05,13,01,40.20
2008,02,05,13,02,37.00
2008,02,05,13,03,37.00
2008,02,05,13,04,33.80
2008,02,05,13,05,43.50
2008,02,05,13,06,33.80
2008,02,05,13,07,32.20
2008,02,05,13,08,35.40
2008,02,05,13,09,22.50
2008,02,05,13,10,38.60
2008,02,05,13,11,45.10
2008,02,05,13,12,37.00
2008,02,05,13,13,33.80
2008,02,05,13,14,24.20
2008,02,05,13,15,30.60
2008,02,05,13,16,35.40
2008,02,05,13,17,51.50
2008,02,05,13,18,41.80
2008,02,05,13,19,53.10
2008,02,05,13,20,48.30
2008,02,05,13,21,46.70
2008,02,05,13,22,38.60
2008,02,05,13,23,43.50
2008,02,05,13,24,53.10
2008,02,05,13,25,38.60
2008,02,05,13,26,41.80
2008,02,05,13,27,20.90
2008,02,05,13,28,30.60
2008,02,05,13,29,33.80
2008,02,05,13,30,32.20
2008,02,05,13,31,48.30
2008,02,05,13,32,41.80
2008,02,05,13,33,46.70
2008,02,05,13,34,45.10
2008,02,05,13,35,35.40
2008,02,05,13,36,43.50
2008,02,05,13,37,35.40
2008,02,05,13,38,43.50
2008,02,05,13,39,45.10
2008,02,05,13,40,40.20
2008,02,05,13,41,46.70
2008,02,05,13,42,46.70
2008,02,05,13,43,41.80
2008,02,05,13,44,33.80
2008,02,05,13,45,37.00
2008,02,05,13,46,33.80
2008,02,05,13,47,43.50
2008,02,05,13,48,32.20
2008,02,05,13,49,35.40
2008,02,05,13,50,57.90
2008,02,05,13,51,48.30
2008,02,05,13,52,32.20
2008,02,05,13,53,37.00
2008,02,05,13,54,41.80
2008,02,05,13,55,49.90
2008,02,05,13,56,51.50
2008,02,05,13,57,53.10
2008,02,05,13,58,41.80
2008,02,05,13,59,54.70
2008,02,05,14,00,46.70
2008,02,05,14,01,41.80
2008,02,05,14,02,40.20
2008,02,05,14,03,29.00
2008,02,05,14,04,41.80
2008,02,05,14,05,41.80
2008,02,05,14,06,24.20
2008,02,05,14,07,30.60
2008,02,05,14,08,41.80
2008,02,05,14,09,43.50
2008,02,05,14,10,41.80
2008,02,05,14,11,46.70
2008,02,05,14,12,40.20
2008,02,05,14,13,33.80
2008,02,05,14,14,35.40
2008,02,05,14,15,25.70
2008,02,05,14,16,33.80
2008,02,05,14,17,27.40
2008,02,05,14,18,33.80
2008,02,05,14,19,33.80
2008,02,05,14,20,41.80
2008,02,05,14,21,30.60
2008,02,05,14,22,29.00
2008,02,05,14,23,49.90
2008,02,05,14,24,46.70
2008,02,05,14,25,41.80
2008,02,05,14,26,35.40
2008,02,05,14,27,29.00
2008,02,05,14,28,37.00
2008,02,05,14,29,35.40
2008,02,05,14,30,32.20
2008,02,05,14,31,41.80
2008,02,05,14,32,46.70
2008,02,05,14,33,43.50
2008,02,05,14,34,45.10
2008,02,05,14,35,53.10
2008,02,05,14,36,22.50
2008,02,05,14,37,27.40
2008,02,05,14,38,33.80
2008,02,05,14,39,51.50
2008,02,05,14,40,35.40
2008,02,05,14,41,40.20
2008,02,05,14,42,27.40
2008,02,05,14,43,29.00
2008,02,05,14,44,33.80
2008,02,05,14,45,45.10
2008,02,05,14,46,49.90
2008,02,05,14,47,37.00
2008,02,05,14,48,48.30
2008,02,05,14,49,51.50
2008,02,05,14,50,51.50
2008,02,05,14,51,32.20
2008,02,05,14,52,41.80
2008,02,05,14,53,27.40
2008,02,05,14,54,35.40
2008,02,05,14,55,33.80
2008,02,05,14,56,30.60
2008,02,05,14,57,24.20
2008,02,05,14,58,17.70
2008,02,05,14,59,24.20
2008,02,05,15,00,35.40
2008,02,05,15,01,25.70
2008,02,05,15,02,37.00
2008,02,05,15,03,37.00
2008,02,05,15,04,30.60
2008,02,05,15,05,30.60
2008,02,05,15,06,25.70
2008,02,05,15,07,48.30
2008,02,05,15,08,41.80
2008,02,05,15,09,27.40
2008,02,05,15,10,19.30
2008,02,05,15,11,41.80
2008,02,05,15,12,45.10
2008,02,05,15,13,37.00
2008,02,05,15,14,38.60
2008,02,05,15,15,25.70
2008,02,05,15,16,33.80
2008,02,05,15,17,32.20
2008,02,05,15,18,30.60
2008,02,05,15,19,38.60
2008,02,05,15,20,35.40
2008,02,05,15,21,38.60
2008,02,05,15,22,41.80
2008,02,05,15,23,49.90
2008,02,05,15,24,27.40
2008,02,05,15,25,49.90
2008,02,05,15,26,45.10
2008,02,05,15,27,38.60
2008,02,05,15,28,35.40
2008,02,05,15,29,29.00
2008,02,05,15,30,43.50
2008,02,05,15,31,35.40
2008,02,05,15,32,49.90
2008,02,05,15,33,40.20
2008,02,05,15,34,51.50
2008,02,05,15,35,37.00
2008,02,05,15,36,37.00
2008,02,05,15,37,45.10
2008,02,05,15,38,41.80
2008,02,05,15,39,46.70
2008,02,05,15,40,25.70
2008,02,05,15,41,33.80
2008,02,05,15,42,24.20
2008,02,05,15,43,40.20
2008,02,05,15,44,43.50
2008,02,05,15,45,38.60
2008,02,05,15,46,35.40
2008,02,05,15,47,37.00
2008,02,05,15,48,41.80
2008,02,05,15,49,48.30
2008,02,05,15,50,37.00
2008,02,05,15,51,43.50
2008,02,05,15,52,33.80
2008,02,05,15,53,49.90
2008,02,05,15,54,41.80
2008,02,05,15,55,49.90
2008,02,05,15,56,41.80
2008,02,05,15,57,46.70
2008,02,05,15,58,53.10
2008,02,05,15,59,54.70
2008,02,05,16,00,43.50
2008,02,05,16,01,35.40
2008,02,05,16,02,40.20
2008,02,05,16,03,35.40
2008,02,05,16,04,38.60
2008,02,05,16,05,32.20
2008,02,05,16,06,27.40
2008,02,05,16,07,32.20
2008,02,05,16,08,35.40
2008,02,05,16,09,35.40
2008,02,05,16,10,46.70
2008,02,05,16,11,35.40
2008,02,05,16,12,20.90
2008,02,05,16,13,33.80
2008,02,05,16,14,29.00
2008,02,05,16,15,32.20
2008,02,05,16,16,32.20
2008,02,05,16,17,40.20
2008,02,05,16,18,46.70
2008,02,05,16,19,35.40
2008,02,05,16,20,61.20
2008,02,05,16,21,40.20
2008,02,05,16,22,38.60
2008,02,05,16,23,49.90
2008,02,05,16,24,45.10
2008,02,05,16,25,38.60
2008,02,05,16,26,40.20
2008,02,05,16,27,67.60
2008,02,05,16,28,45.10
2008,02,05,16,29,41.80
2008,02,05,16,30,46.70
2008,02,05,16,31,61.20
2008,02,05,16,32,64.40
2008,02,05,16,33,41.80
2008,02,05,16,34,43.50
2008,02,05,16,35,43.50
2008,02,05,16,36,38.60
2008,02,05,16,37,59.50
2008,02,05,16,38,32.20
2008,02,05,16,39,53.10
2008,02,05,16,40,25.70
2008,02,05,16,41,32.20
2008,02,05,16,42,30.60
2008,02,05,16,43,37.00
2008,02,05,16,44,35.40
2008,02,05,16,45,29.00
2008,02,05,16,46,35.40
2008,02,05,16,47,24.20
2008,02,05,16,48,32.20
2008,02,05,16,49,22.50
2008,02,05,16,50,33.80
2008,02,05,16,51,20.90
2008,02,05,16,52,17.70
2008,02,05,16,53,30.60
2008,02,05,16,54,30.60
2008,02,05,16,55,25.70
2008,02,05,16,56,37.00
2008,02,05,16,57,33.80
2008,02,05,16,58,22.50
2008,02,05,16,59,32.20
2008,02,05,17,00,25.70
2008,02,05,17,01,17.70
2008,02,05,17,02,29.00
2008,02,05,17,03,32.20
2008,02,05,17,04,33.80
2008,02,05,17,05,41.80
2008,02,05,17,06,41.80
2008,02,05,17,07,40.20
2008,02,05,17,08,29.00
2008,02,05,17,09,29.00
2008,02,05,17,10,24.20
2008,02,05,17,11,27.40
2008,02,05,17,12,27.40
2008,02,05,17,13,41.80
2008,02,05,17,14,20.90
2008,02,05,17,15,25.70
2008,02,05,17,16,29.00
2008,02,05,17,17,27.40
2008,02,05,17,18,22.50
2008,02,05,17,19,19.30
2008,02,05,17,20,24.20
2008,02,05,17,21,35.40
2008,02,05,17,22,30.60
2008,02,05,17,23,30.60
2008,02,05,17,24,30.60
2008,02,05,17,25,22.50
2008,02,05,17,26,29.00
2008,02,05,17,27,54.70
2008,02,05,17,28,32.20
2008,02,05,17,29,37.00
2008,02,05,17,30,30.60
2008,02,05,17,31,30.60
2008,02,05,17,32,17.70
2008,02,05,17,33,24.20
2008,02,05,17,34,35.40
2008,02,05,17,35,17.70
2008,02,05,17,36,11.30
2008,02,05,17,37,25.70
2008,02,05,17,38,19.30
2008,02,05,17,39,12.90
2008,02,05,17,40,27.40